[[{"header":{"parameterUnit":"m.s-1","parameterCategory":1,"la1":30.2991,"la2":30.254,"lo1":-89.0895,"lo2":-89.0444,"dy":0.0017,"dx":0.0017,"nx":28,"ny":28,"refTime":"2025-11-22T03:00:00:Z","depth":0,"parameterNumber":2,"parameterNumberName":"U-component_of_WINDS"},"data":[0,0,0,0,0,0,0,0,0,0,0,0,0,0,0,0,0,0,0,0,0,0,0,0,0,0,0,0,0,0,0,0,0,0,0,0,0,0,0,0,0,0,0,0,0,0,0,0,0,0,0,0,0,0,0,0,0,0,1.5824,1.5824,0,1.5827,1.5828,1.5828,1.5776,1.5774,1.5773,1.5772,1.5779,1.5781,1.5782,0,0,0,0,0,0,0,0,0,0,0,0,0,1.5775,1.5777,1.5824,1.5824,1.5824,1.5827,1.5828,1.5828,1.5776,1.5774,1.5773,1.5771,1.5779,1.578,1.5782,0,0,0,0,0,0,0,0,0,0,0,0,0,1.579,1.5777,1.5824,1.5798,1.5796,1.5827,1.5828,1.5828,1.5776,1.5774,1.5772,1.577,1.5778,1.578,1.5782,1.5839,0,0,1.5789,1.579,0,0,0,0,0,0,0,0,1.5789,1.5791,1.5802,1.58,1.5798,1.5799,1.5813,1.5832,1.5777,1.5784,1.5772,1.5769,1.5788,1.5789,1.5794,1.5839,1.584,1.579,1.5791,1.5792,1.5793,0,0,0,0,0,0,0,1.5788,1.5791,1.5825,1.5802,1.58,1.5788,1.5788,1.5816,1.5798,1.5783,1.578,1.5781,1.5786,1.5792,1.5794,1.584,1.5789,1.5792,1.5793,1.5794,1.5933,1.5935,0,0,0,0,0,0,1.579,1.5791,1.5825,1.5825,1.5788,1.5791,1.579,1.5801,1.5797,1.5795,1.5782,1.5778,1.579,1.5792,1.5794,1.5861,1.5792,1.5794,1.5795,1.5931,1.5934,1.5936,0,0,0,0,0,0,1.5789,1.5793,1.5825,1.5807,1.581,1.5794,1.5806,1.5802,1.5808,1.5797,1.5793,1.5792,1.5788,1.5791,1.5828,1.5861,1.5795,1.5797,1.5928,1.5932,1.5935,1.5996,0,0,0,0,0,0,1.5788,1.5793,1.5814,1.5808,1.5811,1.5858,1.5808,1.5804,1.5812,1.5806,1.5805,1.5803,1.5787,1.5825,1.5831,1.5863,1.5799,1.5925,1.593,1.5934,1.5991,1.6001,1.6009,0,0,0,0,0,1.5786,1.5831,1.5815,1.582,1.5836,1.586,1.5862,1.5842,1.5815,1.5836,1.5829,1.5803,1.5856,1.583,1.5835,1.5869,1.5923,1.5928,1.5933,1.5986,1.5999,1.6009,0,0,0,0,0,0,1.5842,1.583,1.5812,1.5856,1.5859,1.5851,1.5877,1.5855,1.5867,1.5862,1.5837,1.5837,1.5879,1.5877,1.5848,1.5924,1.5885,1.5892,1.5923,1.5935,1.5944,1.5944,1.5801,0,0,0,0,0,1.586,1.5879,1.5867,1.5907,1.591,1.5893,1.5903,1.5887,1.589,1.5891,1.5887,1.5892,1.591,1.5922,1.5938,1.599,1.599,1.6016,1.6025,1.6033,1.6039,1.6068,1.608,1.5953,1.5953,1.5953,0,0,1.5896,1.5891,1.5905,1.5919,1.5919,1.5941,1.5895,1.592,1.5936,1.5895,1.593,1.5927,1.5931,1.5977,1.5996,1.5977,1.6074,1.604,1.6046,1.6048,1.6075,1.6087,1.6097,1.5957,1.5956,1.5956,0,0,1.5973,1.5971,1.6005,1.6007,1.6008,1.5997,1.6005,1.6,1.5997,1.6031,1.6002,1.6021,1.6053,1.6057,1.6063,1.6144,1.6121,1.615,1.6199,1.6227,1.6237,1.6246,1.6276,1.6287,1.6156,1.6156,1.6156,0,1.6018,1.6049,1.6025,1.6052,1.606,1.6023,1.6058,1.6061,1.6068,1.6075,1.6052,1.6091,1.6091,1.6138,1.6158,1.6163,1.6173,1.615,1.6237,1.6246,1.6254,1.6282,1.6293,1.6159,1.6159,1.6159,1.6158,0,1.6105,1.6127,1.6154,1.6161,1.6172,1.6203,1.6185,1.6198,1.6182,1.6174,1.621,1.6209,1.6224,1.6234,1.6218,1.6279,1.6267,1.6241,1.6202,1.627,1.6296,1.6307,1.6164,1.6163,1.6162,1.6161,0,0,1.6217,1.6212,1.6222,1.6225,1.6225,1.6242,1.6272,1.6286,1.6299,1.6306,1.6331,1.6359,1.6335,1.6343,1.6327,1.6352,1.6417,1.6324,1.6323,1.6342,1.6486,1.6505,1.6518,1.6402,1.6404,1.6405,1.6486,0,1.6293,1.6343,1.6323,1.6375,1.6396,1.6362,1.6388,1.6392,1.6385,1.6403,1.6396,1.6416,1.6383,1.6388,1.6411,1.6405,1.6446,1.6398,1.6427,1.6428,1.6428,1.6531,1.6552,1.6628,1.6495,1.6497,1.6498,0,1.6389,1.6399,1.6453,1.6449,1.6457,1.6481,1.6494,1.651,1.6514,1.6508,1.6516,1.6496,1.6526,1.6487,1.6529,1.6497,1.6508,1.6507,1.6509,1.6512,1.6468,1.6538,1.6651,1.6663,1.6514,1.6513,1.6512,0,1.6467,1.6494,1.653,1.6533,1.653,1.6548,1.6548,1.655,1.656,1.6571,1.6578,1.6593,1.6601,1.6614,1.6599,1.6571,1.6644,1.6603,1.6641,1.6642,1.6658,1.6658,1.6776,1.6664,1.6664,1.6664,1.6663,0,1.6554,1.6589,1.6565,1.6587,1.6626,1.6603,1.6642,1.6638,1.664,1.6662,1.6634,1.6655,1.6633,1.6653,1.6642,1.668,1.6683,1.668,1.6677,1.6683,1.6684,1.669,1.6685,1.6667,1.6666,1.6665,1.6665,0,1.6648,1.6633,1.667,1.6665,1.6664,1.6693,1.6688,1.671,1.6701,1.6729,1.6735,1.6722,1.6744,1.673,1.6752,1.6744,1.6794,1.6783,1.6793,1.679,1.6829,1.6826,1.6957,1.6973,1.685,1.6851,1.6852,0,1.6705,1.6731,1.6728,1.674,1.6742,1.6762,1.6772,1.6752,1.6764,1.6771,1.6792,1.6811,1.6826,1.6863,1.6856,1.6874,1.6863,1.6908,1.6866,1.6872,1.6865,1.6864,1.6867,1.6917,1.6918,1.6919,1.692,0,1.6809,1.68,1.6816,1.6829,1.6842,1.6852,1.686,1.6872,1.6851,1.6867,1.6888,1.69,1.6922,1.6943,1.6958,1.6959,1.6937,1.6934,1.6943,1.6951,1.6955,1.6954,1.6817,1.6931,1.693,1.6929,1.6928,1.6928,1.6886,1.6908,1.691,1.6929,1.6932,1.694,1.696,1.6954,1.6972,1.6988,1.6975,1.7002,1.7006,1.7023,1.7027,1.7049,1.7031,1.7045,1.7049,1.7053,1.7058,1.6951,1.7051,1.7051,1.7051,1.705,1.705,0,1.6989,1.6989,1.7006,1.7018,1.7033,1.701,1.7017,1.7032,1.7055,1.7061,1.7076,1.7102,1.7121,1.7117,1.7135,1.7153,1.7143,1.7158,1.7157,1.7158,1.7073,1.7063,1.7166,1.7166,1.7166,1.7166,1.7166,1.7166,1.7045,1.7081,1.7073,1.7111,1.711,1.7136,1.7142,1.715,1.7154,1.7184,1.72,1.7196,1.7198,1.7216,1.7234,1.7232,1.7241,1.726,1.7254,1.7175,1.7164,1.7153,1.7143,1.7261,1.7262,1.7338,1.7338,1.7339]},{"header":{"parameterUnit":"m.s-1","parameterCategory":1,"la1":30.2991,"la2":30.254,"lo1":-89.0895,"lo2":-89.0444,"dy":0.0017,"dx":0.0017,"nx":28,"ny":28,"refTime":"2025-11-22T03:00:00:Z","depth":0,"parameterNumber":3,"parameterNumberName":"V-component_of_WINDS"},"data":[0,0,0,0,0,0,0,0,0,0,0,0,0,0,0,0,0,0,0,0,0,0,0,0,0,0,0,0,0,0,0,0,0,0,0,0,0,0,0,0,0,0,0,0,0,0,0,0,0,0,0,0,0,0,0,0,0,0,2.3931,2.3931,0,2.3927,2.3927,2.3927,2.392,2.392,2.392,2.392,2.3915,2.3915,2.3915,0,0,0,0,0,0,0,0,0,0,0,0,0,2.393,2.393,2.3931,2.3931,2.3931,2.3927,2.3927,2.3927,2.392,2.392,2.392,2.392,2.3915,2.3915,2.3915,0,0,0,0,0,0,0,0,0,0,0,0,0,2.3929,2.393,2.3931,2.3927,2.3927,2.3927,2.3927,2.3927,2.3921,2.392,2.392,2.392,2.3915,2.3915,2.3915,2.3918,0,0,2.3915,2.3915,0,0,0,0,0,0,0,0,2.3929,2.3929,2.3928,2.3927,2.3927,2.3924,2.3925,2.3924,2.3921,2.3923,2.392,2.392,2.3918,2.3918,2.3917,2.3918,2.3918,2.3915,2.3915,2.3915,2.3915,0,0,0,0,0,0,0,2.3929,2.3929,2.3929,2.3928,2.3927,2.3925,2.3924,2.3925,2.3921,2.3923,2.3922,2.3922,2.3918,2.3917,2.3917,2.3918,2.3915,2.3915,2.3915,2.3915,2.3919,2.3919,0,0,0,0,0,0,2.393,2.3929,2.3929,2.3929,2.3927,2.3925,2.3924,2.3925,2.3921,2.3921,2.3922,2.3922,2.3918,2.3917,2.3917,2.392,2.3915,2.3915,2.3915,2.3919,2.3919,2.3919,0,0,0,0,0,0,2.393,2.393,2.3929,2.3929,2.3929,2.3925,2.3926,2.3925,2.3925,2.3921,2.392,2.3922,2.3917,2.3917,2.3918,2.3919,2.3915,2.3915,2.3919,2.3919,2.3919,2.3925,0,0,0,0,0,0,2.393,2.393,2.3932,2.3929,2.3929,2.3931,2.3926,2.3925,2.3925,2.3924,2.3921,2.392,2.3917,2.3918,2.3918,2.3919,2.3915,2.3918,2.3919,2.3919,2.3925,2.3926,2.3926,0,0,0,0,0,2.393,2.3934,2.3932,2.3932,2.3931,2.3931,2.3931,2.3928,2.3925,2.3926,2.3924,2.392,2.3919,2.3918,2.3918,2.3919,2.3918,2.3919,2.3919,2.3925,2.3926,2.3926,0,0,0,0,0,0,2.3937,2.3933,2.3931,2.3935,2.3933,2.393,2.3932,2.3929,2.3928,2.3927,2.3923,2.3922,2.3923,2.3921,2.392,2.3921,2.3918,2.3918,2.3923,2.3923,2.3924,2.3924,2.3915,0,0,0,0,0,2.3939,2.3939,2.3936,2.3939,2.3939,2.3935,2.3935,2.3933,2.3931,2.393,2.3928,2.3925,2.3924,2.3924,2.3923,2.3925,2.3923,2.3925,2.3926,2.3927,2.3927,2.3927,2.3927,2.392,2.392,2.392,0,0,2.3943,2.3941,2.3942,2.3941,2.3939,2.394,2.3935,2.3936,2.3935,2.393,2.3931,2.3928,2.3925,2.3926,2.3927,2.3925,2.3929,2.3927,2.3928,2.3928,2.3927,2.3928,2.3928,2.392,2.392,2.392,0,0,2.395,2.3949,2.3951,2.395,2.3948,2.3945,2.3945,2.3942,2.3941,2.3941,2.3937,2.3936,2.3935,2.3932,2.3931,2.3936,2.3933,2.3936,2.3939,2.3939,2.394,2.394,2.3941,2.3941,2.3936,2.3936,2.3936,0,2.3955,2.3956,2.3952,2.3953,2.3952,2.3947,2.3949,2.3947,2.3945,2.3944,2.3942,2.3939,2.3937,2.3937,2.3938,2.3937,2.3937,2.3936,2.394,2.394,2.3941,2.3941,2.3942,2.3936,2.3936,2.3936,2.3936,0,2.3961,2.3962,2.3964,2.3961,2.3961,2.3962,2.3958,2.3957,2.3955,2.3952,2.3951,2.3948,2.3946,2.3946,2.3943,2.3945,2.3944,2.3941,2.3937,2.3942,2.3942,2.3943,2.3937,2.3937,2.3937,2.3936,0,0,2.3974,2.3969,2.3969,2.3968,2.3965,2.3964,2.3965,2.3963,2.3962,2.396,2.3959,2.3958,2.3955,2.3953,2.395,2.395,2.3952,2.3947,2.3947,2.3947,2.3953,2.3955,2.3955,2.395,2.395,2.395,2.3953,0,2.398,2.398,2.3977,2.3978,2.3978,2.3973,2.3972,2.397,2.3967,2.3966,2.3962,2.3961,2.3958,2.3957,2.3956,2.3952,2.3953,2.3952,2.3949,2.3949,2.3949,2.3956,2.3958,2.396,2.3953,2.3953,2.3953,0,2.3987,2.3985,2.3987,2.3982,2.3982,2.3982,2.3979,2.3978,2.3975,2.3973,2.397,2.3967,2.3965,2.3962,2.396,2.3959,2.3957,2.3955,2.3955,2.3954,2.3951,2.3955,2.3961,2.3961,2.3954,2.3954,2.3954,0,2.3995,2.3993,2.3993,2.3992,2.3987,2.3987,2.3985,2.3981,2.398,2.3977,2.3976,2.3973,2.3971,2.3968,2.3963,2.3962,2.3961,2.3958,2.3959,2.3959,2.3959,2.3959,2.3965,2.3958,2.3958,2.3958,2.3958,0,2.4002,2.4002,2.3996,2.3996,2.3997,2.3992,2.3992,2.3989,2.3986,2.3985,2.398,2.3979,2.3972,2.397,2.3966,2.3964,2.3964,2.3961,2.396,2.3961,2.3962,2.396,2.396,2.3958,2.3958,2.3958,2.3958,0,2.401,2.4006,2.4006,2.4001,2.4,2.4,2.3996,2.3995,2.3992,2.399,2.3989,2.3984,2.3981,2.3975,2.3971,2.3968,2.3967,2.3965,2.3968,2.3967,2.3968,2.3968,2.3973,2.3973,2.3967,2.3967,2.3967,0,2.4015,2.4015,2.401,2.4009,2.4007,2.4006,2.4004,2.3999,2.3997,2.3993,2.3992,2.3989,2.3986,2.3981,2.3976,2.3973,2.397,2.3972,2.397,2.3971,2.397,2.397,2.3969,2.3973,2.3973,2.3973,2.3973,0,2.4023,2.402,2.4019,2.4016,2.4014,2.4012,2.4009,2.4008,2.4002,2.4,2.3997,2.3995,2.399,2.3987,2.3982,2.3979,2.3975,2.3974,2.3974,2.3975,2.3977,2.3975,2.3969,2.3974,2.3974,2.3974,2.3974,2.3974,2.4029,2.4028,2.4025,2.4023,2.402,2.4017,2.4016,2.4012,2.401,2.4006,2.4003,2.4,2.3995,2.3988,2.3985,2.3982,2.398,2.398,2.398,2.398,2.398,2.3977,2.3981,2.3981,2.3981,2.3981,2.3981,0,2.4036,2.4033,2.4031,2.4027,2.4025,2.4022,2.4018,2.4017,2.4014,2.401,2.4007,2.4003,2.4,2.3994,2.399,2.3988,2.3986,2.3987,2.3987,2.3986,2.3983,2.3983,2.3989,2.3989,2.3989,2.3989,2.3989,2.3989,2.4039,2.4038,2.4036,2.4033,2.403,2.4027,2.4025,2.4022,2.4019,2.4015,2.4012,2.4008,2.4003,2.3998,2.3994,2.3993,2.3991,2.3993,2.399,2.3987,2.3986,2.3986,2.3986,2.3992,2.3992,2.3994,2.3994,2.3994]}]]